College Station, TX

10:03 PM CST on February 19, 2017 (GMT -0600)
Easterwood

Weather History for KCLL - August, 2012

Change the Weather History Date:

Monday, August 6, 2012

  Actual Average Record
Temperature  
Mean Temperature 88 °F 86 °F  
Max Temperature 99 °F 97 °F 105 °F (1913)
Min Temperature 77 °F 75 °F 69 °F (1939)
Degree Days  
Heating Degree Days 0 0  
Month to date heating degree days 0 0  
Since 1 June heating degree days 0 0  
Since 1 July heating degree days 0 0  
Cooling Degree Days 23 21  
Month to date cooling degree days 140 125  
Year to date cooling degree days 2216 1840  
Since 1 June cooling degree days 1350 1252  
Growing Degree Days 38 (Base 50)    
Moisture  
Dew Point 71 °F    
Average Humidity 63    
Maximum Humidity 88    
Minimum Humidity 36    
Precipitation  
Precipitation 0.00 in 0.07 in 2.45 in (1957)
Month to date precipitation T 0.42  
Year to date precipitation 29.82 23.26  
Sea Level Pressure  
Sea Level Pressure 30.02 in    
Wind  
Wind Speed 4 mph (SSW)    
Max Wind Speed 15 mph    
Max Gust Speed 20 mph    
Visibility 10 miles    
Events      
T = Trace of Precipitation, MM = Missing Value Source: NWS Daily Summary

Daily Weather History Graph

Daily Weather History Graph

Search for Another Location

Airport or City:

Trip Planner

Search our weather history database for the weather conditions in past years. The results will help you decide how hot, cold, wet, or windy it might be!

Date:

Astronomy

Aug. 06, 2012 Rise Set
Actual Time 6:46 AM CDT 8:15 PM CDT
Civil Twilight 6:21 AM CDT 8:41 PM CDT
Nautical Twilight 5:50 AM CDT 9:11 PM CDT
Astronomical Twilight 5:17 AM CDT 9:43 PM CDT
Moon 10:52 PM CDT (8/6) 11:11 AM CDT (8/6)
Length of Visible Light 14h 20m
Length of Day
13h 28m
Waning Gibbous, 78% of the Moon is Illuminated
Aug 6
Waning Gibbous
Aug 9
Last Quarter
Aug 17
New
Aug 24
First Quarter
Aug 31
Full

Hourly Weather History & Observations

Time (CDT) Temp. Heat Index Dew Point Humidity Pressure Visibility Wind Dir Wind Speed Gust Speed Precip Events Conditions
12:53 AM 81.0 °F 86.2 °F 73.9 °F 79% 30.08 in 10.0 mi South 4.6 mph - N/A   Clear
1:53 AM 79.0 °F - 73.9 °F 84% 30.05 in 10.0 mi SSW 5.8 mph - N/A   Clear
2:53 AM 78.1 °F - 73.0 °F 84% 30.04 in 10.0 mi WSW 3.5 mph - N/A   Clear
3:53 AM 77.0 °F - 73.0 °F 88% 30.04 in 10.0 mi WSW 4.6 mph - N/A   Clear
4:53 AM 77.0 °F - 73.0 °F 88% 30.05 in 10.0 mi NW 3.5 mph - N/A   Clear
5:53 AM 77.0 °F - 73.0 °F 88% 30.06 in 10.0 mi Calm Calm - N/A   Clear
6:53 AM 77.0 °F - 73.0 °F 88% 30.06 in 10.0 mi WSW 4.6 mph - N/A   Clear
7:53 AM 77.0 °F - 73.0 °F 88% 30.08 in 10.0 mi Calm Calm - N/A   Partly Cloudy
8:53 AM 78.1 °F - 72.0 °F 81% 30.08 in 10.0 mi West 3.5 mph - N/A   Clear
9:53 AM 81.0 °F 85.8 °F 73.0 °F 77% 30.09 in 10.0 mi Calm Calm - N/A   Clear
10:53 AM 86.0 °F 90.7 °F 70.0 °F 59% 30.09 in 10.0 mi North 4.6 mph - N/A   Clear
11:53 AM 87.1 °F 91.3 °F 69.1 °F 55% 30.08 in 10.0 mi Calm Calm - N/A   Clear
12:53 PM 90.0 °F 94.5 °F 69.1 °F 50% 30.06 in 10.0 mi Calm Calm - N/A   Clear
1:53 PM 91.0 °F 95.2 °F 68.0 °F 47% 30.04 in 10.0 mi SW 4.6 mph - N/A   Clear
2:53 PM 95.0 °F 97.9 °F 66.0 °F 38% 30.01 in 10.0 mi South 3.5 mph - N/A   Clear
3:53 PM 98.1 °F 102.4 °F 66.9 °F 36% 29.96 in 10.0 mi NE 4.6 mph - N/A   Clear
4:53 PM 98.1 °F 102.4 °F 66.9 °F 36% 29.94 in 10.0 mi Calm Calm - N/A   Partly Cloudy
5:53 PM 98.1 °F 102.4 °F 66.9 °F 36% 29.94 in 10.0 mi East 9.2 mph - N/A   Partly Cloudy
6:53 PM 96.1 °F 101.0 °F 68.0 °F 40% 29.93 in 10.0 mi SSE 8.1 mph - N/A   Mostly Cloudy
7:53 PM 93.0 °F 97.4 °F 68.0 °F 44% 29.94 in 10.0 mi SE 11.5 mph - N/A   Clear
8:53 PM 91.0 °F 97.6 °F 71.1 °F 52% 29.95 in 10.0 mi South 6.9 mph - N/A   Clear
9:53 PM 87.1 °F 92.8 °F 71.1 °F 59% 29.95 in 10.0 mi SW 4.6 mph - N/A   Clear
10:53 PM 86.0 °F 90.7 °F 70.0 °F 59% 29.96 in 10.0 mi South 3.5 mph - N/A   Clear
11:53 PM 84.9 °F 90.1 °F 71.1 °F 63% 29.96 in 10.0 mi South 4.6 mph - N/A   Clear